Year,Month,Day,Hour,Minute,Value (Times are PST for temperature in C)
2018,02,02,13,20,11.40
2018,02,02,13,21,11.40
2018,02,02,13,22,11.50
2018,02,02,13,23,11.50
2018,02,02,13,24,11.50
2018,02,02,13,25,11.50
2018,02,02,13,26,11.50
2018,02,02,13,27,11.50
2018,02,02,13,28,11.50
2018,02,02,13,29,11.50
2018,02,02,13,30,11.50
2018,02,02,13,31,11.50
2018,02,02,13,32,11.60
2018,02,02,13,33,11.60
2018,02,02,13,34,11.60
2018,02,02,13,35,11.70
2018,02,02,13,36,11.70
2018,02,02,13,37,11.70
2018,02,02,13,38,11.70
2018,02,02,13,39,11.70
2018,02,02,13,40,11.70
2018,02,02,13,41,11.70
2018,02,02,13,42,11.70
2018,02,02,13,43,11.60
2018,02,02,13,44,11.60
2018,02,02,13,45,11.50
2018,02,02,13,46,11.50
2018,02,02,13,47,11.50
2018,02,02,13,48,11.50
2018,02,02,13,49,11.50
2018,02,02,13,50,11.60
2018,02,02,13,51,11.60
2018,02,02,13,52,11.50
2018,02,02,13,53,11.50
2018,02,02,13,54,11.40
2018,02,02,13,55,11.40
2018,02,02,13,56,11.40
2018,02,02,13,57,11.40
2018,02,02,13,58,11.40
2018,02,02,13,59,11.40
2018,02,02,14,00,11.40
2018,02,02,14,01,11.40
2018,02,02,14,02,11.30
2018,02,02,14,03,11.30
2018,02,02,14,04,11.30
2018,02,02,14,05,11.30
2018,02,02,14,06,11.30
2018,02,02,14,07,11.30
2018,02,02,14,08,11.30
2018,02,02,14,09,11.30
2018,02,02,14,10,11.30
2018,02,02,14,11,11.20
2018,02,02,14,12,11.20
2018,02,02,14,13,11.20
2018,02,02,14,14,11.20
2018,02,02,14,15,11.20
2018,02,02,14,16,11.10
2018,02,02,14,17,11.10
2018,02,02,14,18,11.10
2018,02,02,14,19,11.10
2018,02,02,14,20,11.10
2018,02,02,14,21,11.10
2018,02,02,14,22,11.10
2018,02,02,14,23,11.10
2018,02,02,14,24,11.10
2018,02,02,14,25,11.10
2018,02,02,14,26,11.10
2018,02,02,14,27,11.10
2018,02,02,14,28,11.00
2018,02,02,14,29,11.00
2018,02,02,14,30,11.00
2018,02,02,14,31,11.00
2018,02,02,14,32,11.00
2018,02,02,14,33,11.00
2018,02,02,14,34,11.00
2018,02,02,14,35,11.00
2018,02,02,14,36,11.00
2018,02,02,14,37,11.00
2018,02,02,14,38,11.00
2018,02,02,14,39,10.90
2018,02,02,14,40,10.90
2018,02,02,14,41,10.90
2018,02,02,14,42,10.90
2018,02,02,14,43,10.90
2018,02,02,14,44,10.90
2018,02,02,14,45,10.90
2018,02,02,14,46,10.90
2018,02,02,14,47,10.90
2018,02,02,14,48,10.90
2018,02,02,14,49,10.80
2018,02,02,14,50,10.80
2018,02,02,14,51,10.80
2018,02,02,14,52,10.80
2018,02,02,14,53,10.80
2018,02,02,14,54,10.80
2018,02,02,14,55,10.80
2018,02,02,14,56,10.80
2018,02,02,14,57,10.80
2018,02,02,14,58,10.70
2018,02,02,14,59,10.70
2018,02,02,15,00,10.70
2018,02,02,15,01,10.70
2018,02,02,15,02,10.70
2018,02,02,15,03,10.70
2018,02,02,15,04,10.70
2018,02,02,15,05,10.70
2018,02,02,15,06,10.70
2018,02,02,15,07,10.60
2018,02,02,15,08,10.60
2018,02,02,15,09,10.60
2018,02,02,15,10,10.60
2018,02,02,15,11,10.60
2018,02,02,15,12,10.60
2018,02,02,15,13,10.60
2018,02,02,15,14,10.50
2018,02,02,15,15,10.50
2018,02,02,15,16,10.40
2018,02,02,15,17,10.40
2018,02,02,15,18,10.40
2018,02,02,15,19,10.40
2018,02,02,15,20,10.40
2018,02,02,15,21,10.40
2018,02,02,15,22,10.40
2018,02,02,15,23,10.40
2018,02,02,15,24,10.40
2018,02,02,15,25,10.40
2018,02,02,15,26,10.40
2018,02,02,15,27,10.40
2018,02,02,15,28,10.40
2018,02,02,15,29,10.40
2018,02,02,15,30,10.50
2018,02,02,15,31,10.50
2018,02,02,15,32,10.50
2018,02,02,15,33,10.50
2018,02,02,15,34,10.50
2018,02,02,15,35,10.50
2018,02,02,15,36,10.50
2018,02,02,15,37,10.50
2018,02,02,15,38,10.50
2018,02,02,15,39,10.40
2018,02,02,15,40,10.40
2018,02,02,15,41,10.40
2018,02,02,15,42,10.40
2018,02,02,15,43,10.40
2018,02,02,15,44,10.30
2018,02,02,15,45,10.30
2018,02,02,15,46,10.30
2018,02,02,15,47,10.30
2018,02,02,15,48,10.30
2018,02,02,15,49,10.30
2018,02,02,15,50,10.30
2018,02,02,15,51,10.30
2018,02,02,15,52,10.30
2018,02,02,15,53,10.30
2018,02,02,15,54,10.30
2018,02,02,15,55,10.30
2018,02,02,15,56,10.30
2018,02,02,15,57,10.30
2018,02,02,15,58,10.30
2018,02,02,15,59,10.30
2018,02,02,16,00,10.30
2018,02,02,16,01,10.30
2018,02,02,16,02,10.30
2018,02,02,16,03,10.30
2018,02,02,16,04,10.30
2018,02,02,16,05,10.30
2018,02,02,16,06,10.30
2018,02,02,16,07,10.30
2018,02,02,16,08,10.30
2018,02,02,16,09,10.30
2018,02,02,16,10,10.30
2018,02,02,16,11,10.30
2018,02,02,16,12,10.30
2018,02,02,16,13,10.30
2018,02,02,16,14,10.30
2018,02,02,16,15,10.30
2018,02,02,16,16,10.30
2018,02,02,16,17,10.30
2018,02,02,16,18,10.30
2018,02,02,16,19,10.30
2018,02,02,16,20,10.30
2018,02,02,16,21,10.30
2018,02,02,16,22,10.30
2018,02,02,16,23,10.30
2018,02,02,16,24,10.20
2018,02,02,16,25,10.20
2018,02,02,16,26,10.20
2018,02,02,16,27,10.20
2018,02,02,16,28,10.20
2018,02,02,16,29,10.20
2018,02,02,16,30,10.20
2018,02,02,16,31,10.20
2018,02,02,16,32,10.20
2018,02,02,16,33,10.20
2018,02,02,16,34,10.20
2018,02,02,16,35,10.20
2018,02,02,16,36,10.20
2018,02,02,16,37,10.20
2018,02,02,16,38,10.20
2018,02,02,16,39,10.20
2018,02,02,16,40,10.10
2018,02,02,16,41,10.10
2018,02,02,16,42,10.10
2018,02,02,16,43,10.10
2018,02,02,16,44,10.10
2018,02,02,16,45,10.10
2018,02,02,16,46,10.10
2018,02,02,16,47,10.10
2018,02,02,16,48,10.10
2018,02,02,16,49,10.10
2018,02,02,16,50,10.10
2018,02,02,16,51,10.10
2018,02,02,16,52,10.10
2018,02,02,16,53,10.10
2018,02,02,16,54,10.00
2018,02,02,16,55,10.00
2018,02,02,16,56,10.00
2018,02,02,16,57,10.00
2018,02,02,16,58,10.00
2018,02,02,16,59,10.00
2018,02,02,17,00,10.00
2018,02,02,17,01,10.00
2018,02,02,17,02,9.90
2018,02,02,17,03,10.00
2018,02,02,17,04,9.90
2018,02,02,17,05,9.90
2018,02,02,17,06,9.90
2018,02,02,17,07,9.90
2018,02,02,17,08,9.90
2018,02,02,17,09,9.90
2018,02,02,17,10,9.90
2018,02,02,17,11,9.90
2018,02,02,17,12,9.80
2018,02,02,17,13,9.80
2018,02,02,17,14,9.80
2018,02,02,17,15,9.80
2018,02,02,17,16,9.80
2018,02,02,17,17,9.80
2018,02,02,17,18,9.80
2018,02,02,17,19,9.80
2018,02,02,17,20,9.80
2018,02,02,17,21,9.80
2018,02,02,17,22,9.80
2018,02,02,17,23,9.70
2018,02,02,17,24,9.70
2018,02,02,17,25,9.70
2018,02,02,17,26,9.70
2018,02,02,17,27,9.70
2018,02,02,17,28,9.70
2018,02,02,17,29,9.70
2018,02,02,17,30,9.70
2018,02,02,17,31,9.70
2018,02,02,17,32,9.70
2018,02,02,17,33,9.70
2018,02,02,17,34,9.70
2018,02,02,17,35,9.70
2018,02,02,17,36,9.70
2018,02,02,17,37,9.70
2018,02,02,17,38,9.80
2018,02,02,17,39,9.70
2018,02,02,17,40,9.70
2018,02,02,17,41,9.80
2018,02,02,17,42,9.80
2018,02,02,17,43,9.80
2018,02,02,17,44,9.80
2018,02,02,17,45,9.80
2018,02,02,17,46,9.80
2018,02,02,17,47,9.80
2018,02,02,17,48,9.80
2018,02,02,17,49,9.80
2018,02,02,17,50,9.80
2018,02,02,17,51,9.80
2018,02,02,17,52,9.80
2018,02,02,17,53,9.80
2018,02,02,17,54,9.80
2018,02,02,17,55,9.80
2018,02,02,17,56,9.80
2018,02,02,17,57,9.80
2018,02,02,17,58,9.80
2018,02,02,17,59,9.70
2018,02,02,18,00,9.70
2018,02,02,18,01,9.70
2018,02,02,18,02,9.70
2018,02,02,18,03,9.70
2018,02,02,18,04,9.70
2018,02,02,18,05,9.70
2018,02,02,18,06,9.70
2018,02,02,18,07,9.70
2018,02,02,18,08,9.70
2018,02,02,18,09,9.70
2018,02,02,18,10,9.70
2018,02,02,18,11,9.70
2018,02,02,18,12,9.70
2018,02,02,18,13,9.70
2018,02,02,18,14,9.70
2018,02,02,18,15,9.70
2018,02,02,18,16,9.70
2018,02,02,18,17,9.70
2018,02,02,18,18,9.70
2018,02,02,18,19,9.70
2018,02,02,18,20,9.70
2018,02,02,18,21,9.70
2018,02,02,18,22,9.70
2018,02,02,18,23,9.70
2018,02,02,18,24,9.70
2018,02,02,18,25,9.70
2018,02,02,18,26,9.70
2018,02,02,18,27,9.70
2018,02,02,18,28,9.70
2018,02,02,18,29,9.70
2018,02,02,18,30,9.70
2018,02,02,18,31,9.70
2018,02,02,18,32,9.70
2018,02,02,18,33,9.70
2018,02,02,18,34,9.70
2018,02,02,18,35,9.70
2018,02,02,18,36,9.70
2018,02,02,18,37,9.70
2018,02,02,18,38,9.70
2018,02,02,18,39,9.70
2018,02,02,18,40,9.70
2018,02,02,18,41,9.70
2018,02,02,18,42,9.70
2018,02,02,18,43,9.60
2018,02,02,18,44,9.60
2018,02,02,18,45,9.60
2018,02,02,18,46,9.60
2018,02,02,18,47,9.60
2018,02,02,18,48,9.60
2018,02,02,18,49,9.60
2018,02,02,18,50,9.60
2018,02,02,18,51,9.60
2018,02,02,18,52,9.60
2018,02,02,18,53,9.60
2018,02,02,18,54,9.60
2018,02,02,18,55,9.60
2018,02,02,18,56,9.60
2018,02,02,18,57,9.60
2018,02,02,18,58,9.60
2018,02,02,18,59,9.60
2018,02,02,19,00,9.60
2018,02,02,19,01,9.60
2018,02,02,19,02,9.60
2018,02,02,19,03,9.60
2018,02,02,19,04,9.60
2018,02,02,19,05,9.60
2018,02,02,19,06,9.60
2018,02,02,19,07,9.60
2018,02,02,19,08,9.60
2018,02,02,19,09,9.60
2018,02,02,19,10,9.70
2018,02,02,19,11,9.60
2018,02,02,19,12,9.60
2018,02,02,19,13,9.70
2018,02,02,19,14,9.70
2018,02,02,19,15,9.70
2018,02,02,19,16,9.70
2018,02,02,19,17,9.70
2018,02,02,19,18,9.70
2018,02,02,19,19,9.70
2018,02,02,19,20,9.70
2018,02,02,19,21,9.70
2018,02,02,19,22,9.70
2018,02,02,19,23,9.70
2018,02,02,19,24,9.70
2018,02,02,19,25,9.70
2018,02,02,19,26,9.70
2018,02,02,19,27,9.70
2018,02,02,19,28,9.70
2018,02,02,19,29,9.70
2018,02,02,19,30,9.70
2018,02,02,19,31,9.70
2018,02,02,19,32,9.70
2018,02,02,19,33,9.70
2018,02,02,19,34,9.70
2018,02,02,19,35,9.70
2018,02,02,19,36,9.70
2018,02,02,19,37,9.70
2018,02,02,19,38,9.70
2018,02,02,19,39,9.70
2018,02,02,19,40,9.70
2018,02,02,19,41,9.70
2018,02,02,19,42,9.70
2018,02,02,19,43,9.70
2018,02,02,19,44,9.70
2018,02,02,19,45,9.70
2018,02,02,19,46,9.70
2018,02,02,19,47,9.70
2018,02,02,19,48,9.70
2018,02,02,19,49,9.70
2018,02,02,19,50,9.70
2018,02,02,19,51,9.70
2018,02,02,19,52,9.70
2018,02,02,19,53,9.80
2018,02,02,19,54,9.80
2018,02,02,19,55,9.80
2018,02,02,19,56,9.80
2018,02,02,19,57,9.80
2018,02,02,19,58,9.80
2018,02,02,19,59,9.90
2018,02,02,20,00,9.90
2018,02,02,20,01,9.90
2018,02,02,20,02,9.90
2018,02,02,20,03,9.90
2018,02,02,20,04,9.90
2018,02,02,20,05,9.90
2018,02,02,20,06,9.90
2018,02,02,20,07,9.90
2018,02,02,20,08,9.80
2018,02,02,20,09,9.80
2018,02,02,20,10,9.80
2018,02,02,20,11,9.80
2018,02,02,20,12,9.80
2018,02,02,20,13,9.80
2018,02,02,20,14,9.80
2018,02,02,20,15,9.90
2018,02,02,20,16,9.90
2018,02,02,20,17,9.90
2018,02,02,20,18,9.90
2018,02,02,20,19,9.90
2018,02,02,20,20,9.90
2018,02,02,20,21,9.90
2018,02,02,20,22,9.90
2018,02,02,20,23,9.90
2018,02,02,20,24,9.90
2018,02,02,20,25,9.90
2018,02,02,20,26,9.90
2018,02,02,20,27,9.90
2018,02,02,20,28,9.90
2018,02,02,20,29,10.00
2018,02,02,20,30,10.00
2018,02,02,20,31,10.00
2018,02,02,20,32,10.00
2018,02,02,20,33,10.00
2018,02,02,20,34,10.00
2018,02,02,20,35,10.00
2018,02,02,20,36,10.00
2018,02,02,20,37,10.00
2018,02,02,20,38,10.10
2018,02,02,20,39,10.10
2018,02,02,20,40,10.10
2018,02,02,20,41,10.10
2018,02,02,20,42,10.20
2018,02,02,20,43,10.20
2018,02,02,20,44,10.20
2018,02,02,20,45,10.20
2018,02,02,20,46,10.20
2018,02,02,20,47,10.20
2018,02,02,20,48,10.20
2018,02,02,20,49,10.20
2018,02,02,20,50,10.20
2018,02,02,20,51,10.20
2018,02,02,20,52,10.20
2018,02,02,20,53,10.20
2018,02,02,20,54,10.30
2018,02,02,20,55,10.30
2018,02,02,20,56,10.30
2018,02,02,20,57,10.30
2018,02,02,20,58,10.30
2018,02,02,20,59,10.30
2018,02,02,21,00,10.30
2018,02,02,21,01,10.30
2018,02,02,21,02,10.30
2018,02,02,21,03,10.30
2018,02,02,21,04,10.30
2018,02,02,21,05,10.30
2018,02,02,21,06,10.30
2018,02,02,21,07,10.30
2018,02,02,21,08,10.30
2018,02,02,21,09,10.30
2018,02,02,21,10,10.30
2018,02,02,21,11,10.30
2018,02,02,21,12,10.30
2018,02,02,21,13,10.30
2018,02,02,21,14,10.30
2018,02,02,21,15,10.30
2018,02,02,21,16,10.40
2018,02,02,21,17,10.40
2018,02,02,21,18,10.40
2018,02,02,21,19,10.40
2018,02,02,21,20,10.40
2018,02,02,21,21,10.40
2018,02,02,21,22,10.40
2018,02,02,21,23,10.40
2018,02,02,21,24,10.40
2018,02,02,21,25,10.40
2018,02,02,21,26,10.40
2018,02,02,21,27,10.40
2018,02,02,21,28,10.40
2018,02,02,21,29,10.40
2018,02,02,21,30,10.40
2018,02,02,21,31,10.40
2018,02,02,21,32,10.40
2018,02,02,21,33,10.40
2018,02,02,21,34,10.40
2018,02,02,21,35,10.40
2018,02,02,21,36,10.40
2018,02,02,21,37,10.40
2018,02,02,21,38,10.40
2018,02,02,21,39,10.40
2018,02,02,21,40,10.40
2018,02,02,21,41,10.40
2018,02,02,21,42,10.40
2018,02,02,21,43,10.40
2018,02,02,21,44,10.40
2018,02,02,21,45,10.40
2018,02,02,21,46,10.40
2018,02,02,21,47,10.40
2018,02,02,21,48,10.40
2018,02,02,21,49,10.40
2018,02,02,21,50,10.30
2018,02,02,21,51,10.30
2018,02,02,21,52,10.30
2018,02,02,21,53,10.30
2018,02,02,21,54,10.30
2018,02,02,21,55,10.30
2018,02,02,21,56,10.30
2018,02,02,21,57,10.30
2018,02,02,21,58,10.30
2018,02,02,21,59,10.30
2018,02,02,22,00,10.30
2018,02,02,22,01,10.30
2018,02,02,22,02,10.30
2018,02,02,22,03,10.30
2018,02,02,22,04,10.30
2018,02,02,22,05,10.30
2018,02,02,22,06,10.30
2018,02,02,22,07,10.30
2018,02,02,22,08,10.30
2018,02,02,22,09,10.30
2018,02,02,22,10,10.30
2018,02,02,22,11,10.30
2018,02,02,22,12,10.30
2018,02,02,22,13,10.30
2018,02,02,22,14,10.20
2018,02,02,22,15,10.20
2018,02,02,22,16,10.20
2018,02,02,22,17,10.20
2018,02,02,22,18,10.20
2018,02,02,22,19,10.20
2018,02,02,22,20,10.20
2018,02,02,22,21,10.20
2018,02,02,22,22,10.10
2018,02,02,22,23,10.10
2018,02,02,22,24,10.10
2018,02,02,22,25,10.10
2018,02,02,22,26,10.00
2018,02,02,22,27,10.00
2018,02,02,22,28,10.00
2018,02,02,22,29,9.90
2018,02,02,22,30,9.90
2018,02,02,22,31,9.90
2018,02,02,22,32,9.90
2018,02,02,22,33,9.80
2018,02,02,22,34,9.80
2018,02,02,22,35,9.80
2018,02,02,22,36,9.80
2018,02,02,22,37,9.80
2018,02,02,22,38,9.80
2018,02,02,22,39,9.70
2018,02,02,22,40,9.70
2018,02,02,22,41,9.70
2018,02,02,22,42,9.70
2018,02,02,22,43,9.60
2018,02,02,22,44,9.60
2018,02,02,22,45,9.60
2018,02,02,22,46,9.60
2018,02,02,22,47,9.60
2018,02,02,22,48,9.50
2018,02,02,22,49,9.50
2018,02,02,22,50,9.50
2018,02,02,22,51,9.40
2018,02,02,22,52,9.40
2018,02,02,22,53,9.40
2018,02,02,22,54,9.50
2018,02,02,22,55,9.50
2018,02,02,22,56,9.50
2018,02,02,22,57,9.60
2018,02,02,22,58,9.60
2018,02,02,22,59,9.60
2018,02,02,23,00,9.60
2018,02,02,23,01,9.70
2018,02,02,23,02,9.70
2018,02,02,23,03,9.70
2018,02,02,23,04,9.70
2018,02,02,23,05,9.70
2018,02,02,23,06,9.70
2018,02,02,23,07,9.70
2018,02,02,23,08,9.70
2018,02,02,23,09,9.70
2018,02,02,23,10,9.70
2018,02,02,23,11,9.80
2018,02,02,23,12,9.80
2018,02,02,23,13,9.80
2018,02,02,23,14,9.90
2018,02,02,23,15,10.00
2018,02,02,23,16,10.00
2018,02,02,23,17,10.10
2018,02,02,23,18,10.10
2018,02,02,23,19,10.20
2018,02,02,23,20,10.20
2018,02,02,23,21,10.20
2018,02,02,23,22,10.20
2018,02,02,23,23,10.20
2018,02,02,23,24,10.30
2018,02,02,23,25,10.30
2018,02,02,23,26,10.30
2018,02,02,23,27,10.30
2018,02,02,23,28,10.30
2018,02,02,23,29,10.30
2018,02,02,23,30,10.30
2018,02,02,23,31,10.30
2018,02,02,23,32,10.30
2018,02,02,23,33,10.30
2018,02,02,23,34,10.30
2018,02,02,23,35,10.30
2018,02,02,23,36,10.30
2018,02,02,23,37,10.30
2018,02,02,23,38,10.30
2018,02,02,23,39,10.30
2018,02,02,23,40,10.30
2018,02,02,23,41,10.30
2018,02,02,23,42,10.30
2018,02,02,23,43,10.30
2018,02,02,23,44,10.30
2018,02,02,23,45,10.30
2018,02,02,23,46,10.20
2018,02,02,23,47,10.20
2018,02,02,23,48,10.20
2018,02,02,23,49,10.20
2018,02,02,23,50,10.20
2018,02,02,23,51,10.20
2018,02,02,23,52,10.20
2018,02,02,23,53,10.20
2018,02,02,23,54,10.20
2018,02,02,23,55,10.20
2018,02,02,23,56,10.20
2018,02,02,23,57,10.20
2018,02,02,23,58,10.20
2018,02,02,23,59,10.20
